Hourly Data Report for September 26, 2017

All times are specified in Local Standard Time (LST). Add 1 hour to adjust for Daylight Saving Time where and when it is observed.

POND INLET A
NUNAVUT

72°41'22.000" N
77°58'08.000" W
61.60 m
2403206
71095
YIO

Download Data

Hourly Data (September 2017)
Hourly Data Report for September 26, 2017
Temp Definition
°C
Dew Point Temp Definition
°C
Rel Hum Definition
%
Wind Dir Definition
10's deg

Wind Spd Definition
km/h
Visibility Definition
km
Stn Press Definition
kPa
Hmdx Definition


Wind Chill Definition


Weather Definition


TIME
00:00 Legend Double Dagger -8.0 -10.6 82 14 24 16.1 100.46   -16 LegendNANA
01:00 Legend Double Dagger -8.0 -10.6 82 14 24 16.1 100.48   -16 LegendNANA
02:00 Legend Double Dagger -8.3 -10.9 82 14 21 16.1 100.52   -16 LegendNANA
03:00 Legend Double Dagger -8.2 -10.9 81 14 22 16.1 100.54   -16 LegendNANA
04:00 Legend Double Dagger -7.0 -9.6 82 14 18 16.1 100.57   -14 LegendNANA
05:00 Legend Double Dagger -6.4 -8.8 83 16 22 16.1 100.60   -14 LegendNANA
06:00 Legend Double Dagger -5.5 -8.3 81 16 22 16.1 100.61   -13 LegendNANA
07:00 Legend Double Dagger -5.1 -7.7 82 14 22 16.1 100.62   -12 LegendNANA
08:00 Legend Double Dagger -4.8 -7.6 81 15 24 16.1 100.60   -12 LegendNANA
09:00 Legend Double Dagger -4.3 -7.3 80 14 18 16.1 100.60   -10 LegendNANA
10:00 Legend Double Dagger -4.3 -7.3 80 15 22 16.1 100.60   -11 LegendNANA
11:00 Legend Double Dagger -4.1 -7.2 79 15 18 16.1 100.61   -10 LegendNANA
12:00 Legend Double Dagger -3.7 -6.7 80 16 17 16.1 100.61   -9 LegendNANA
13:00 Legend Double Dagger -3.5 -6.5 80 17 15 16.1 100.61   -9 LegendNANA
14:00 Legend Double Dagger -3.4 -6.4 80 16 13 16.1 100.61   -8 LegendNANA
15:00 Legend Double Dagger -3.2 -6.8 77 24 13 16.1 100.60   -8 LegendNANA
16:00 Legend Double Dagger -3.0 -6.5 77 26 5 16.1 100.61   -5 LegendNANA
17:00 Legend Double Dagger -3.1 -6.4 78 26 17 16.1 100.60   -9 LegendNANA
18:00 Legend Double Dagger -3.3 -6.8 77 28 11 16.1 100.59   -8 Snow
19:00 Legend Double Dagger -3.3 -6.7 77 26 11 16.1 100.61   -8 LegendNANA
20:00 Legend Double Dagger -3.6 -6.7 79 22 9 16.1 100.60   -7 Snow
21:00 Legend Double Dagger -3.8 -7.1 78 LegendMM 5 16.1 100.58   -6 LegendNANA
22:00 Legend Double Dagger -3.8 -7.4 76 LegendMM 4 16.1 100.56   -5 Snow
23:00 Legend Double Dagger -4.1 -7.2 79 10 5 16.1 100.56   -6 LegendNANA

Notes on Data Quality.

Legend

  • E = Estimated
  • M = Missing
  • NA = Not Available
  • ‡ = Partner data that is not subject to review by the National Climate Archives
Date modified: